Location: Unspecified
(41.9031°N, 12.4386°E)
Time: 06:54:59
(UTC+01:00)

ISS - Pass Details

Date: 09 December 2019
Orbit: 411 x 421 km, 51.6° (Epoch: 15 December)

Event Time Altitude Azimuth Distance (km) Brightness Sun altitude
Rises 19:13:48 0° 291° (WNW) 2,360 1.0 -28.0°
Reaches altitude 10° 19:16:23 10° 270° (W) 1,495 0.0 -28.4°
Enters shadow 19:18:09 16° 239° (WSW) 1,162 -0.9 -28.8°
